Moriarty, NM

10:34 AM MDT on April 26, 2017 (GMT -0600)
Moriarty

Weather History for K0E0 - November, 2012

Change the Weather History Date:

Monday, November 26, 2012

  Actual Average (KABQ) Record (KABQ)
Temperature  
Mean Temperature 40 °F -  
Max Temperature 61 °F 50 °F 74 °F (1995)
Min Temperature 18 °F 28 °F 10 °F (1975)
Degree Days  
Heating Degree Days 26    
Moisture  
Dew Point 13 °F    
Average Humidity 41    
Maximum Humidity 78    
Minimum Humidity 16    
Precipitation  
Precipitation 0.00 in - - ()
Sea Level Pressure  
Sea Level Pressure 30.20 in    
Wind  
Wind Speed 6 mph (NNE)    
Max Wind Speed 14 mph    
Max Gust Speed 18 mph    
Visibility 10 miles    
Events      
Averages and records for this station are not official NWS values.
T = Trace of Precipitation, MM = Missing Value Source: NWS Daily Summary

Daily Weather History Graph

Daily Weather History Graph

Search for Another Location

Airport or City:

Trip Planner

Search our weather history database for the weather conditions in past years. The results will help you decide how hot, cold, wet, or windy it might be!

Date:

Astronomy

Nov. 26, 2012 Rise Set
Actual Time 6:49 AM MST 4:53 PM MST
Civil Twilight 6:22 AM MST 5:20 PM MST
Nautical Twilight 5:50 AM MST 5:51 PM MST
Astronomical Twilight 5:20 AM MST 6:22 PM MST
Moon 3:45 PM MST 5:04 AM MST
Length of Visible Light 10h 58m
Length of Day
10h 03m
Waxing Gibbous, 97% of the Moon is Illuminated
Nov 26
Waxing Gibbous
Nov 28
Full
Dec 6
Last Quarter
Dec 13
New
Dec 19
First Quarter

Hourly Weather History & Observations

Time (MST) Temp. Windchill Dew Point Humidity Pressure Visibility Wind Dir Wind Speed Gust Speed Precip Events Conditions
12:15 AM 25.7 °F 18.0 °F 8.1 °F 47% 30.05 in 10.0 mi ENE 6.9 mph - N/A   Clear
12:35 AM 26.1 °F 19.4 °F 8.4 °F 47% 30.06 in 10.0 mi ENE 5.8 mph - N/A   Clear
12:55 AM 28.4 °F 22.2 °F 9.9 °F 46% 30.05 in 10.0 mi ENE 5.8 mph - N/A   Clear
1:15 AM 23.7 °F 16.6 °F 7.3 °F 50% 30.05 in 10.0 mi ENE 5.8 mph - N/A   Clear
1:35 AM 26.6 °F 21.2 °F 9.3 °F 48% 30.06 in 10.0 mi ENE 4.6 mph - N/A   Clear
1:55 AM 25.0 °F 20.7 °F 9.1 °F 51% 30.06 in 10.0 mi East 3.5 mph - N/A   Clear
2:15 AM 27.3 °F 23.4 °F 9.5 °F 47% 30.07 in 10.0 mi ENE 3.5 mph - N/A   Clear
2:35 AM 21.7 °F - 6.1 °F 51% 30.08 in 10.0 mi Calm Calm - N/A   Clear
2:55 AM 22.6 °F 13.4 °F 6.3 °F 50% 30.08 in 10.0 mi WNW 8.1 mph - N/A   Clear
3:15 AM 37.4 °F 31.4 °F 12.7 °F 36% 30.08 in 10.0 mi WNW 8.1 mph - N/A   Clear
3:35 AM 39.0 °F 34.8 °F 11.8 °F 33% 30.08 in 10.0 mi NNW 5.8 mph - N/A   Clear
3:55 AM 28.0 °F 22.8 °F 9.3 °F 45% 30.08 in 10.0 mi NNW 4.6 mph - N/A   Clear
4:15 AM 25.7 °F 18.0 °F 7.3 °F 46% 30.08 in 10.0 mi NNW 6.9 mph - N/A   Clear
4:35 AM 21.7 °F 12.3 °F 7.0 °F 53% 30.08 in 10.0 mi WNW 8.1 mph - N/A   Clear
4:55 AM 22.3 °F 11.5 °F 7.0 °F 52% 30.08 in 10.0 mi WNW 10.4 mph - N/A   Clear
5:15 AM 29.5 °F 19.9 °F 10.9 °F 46% 30.09 in 10.0 mi WNW 11.5 mph - N/A   Clear
5:35 AM 32.7 °F - 10.0 °F 39% 30.10 in 10.0 mi Calm Calm - N/A   Clear
5:55 AM 23.4 °F 18.9 °F 7.7 °F 51% 30.12 in 10.0 mi NE 3.5 mph - N/A   Clear
6:15 AM 21.0 °F - 6.6 °F 54% 30.12 in 10.0 mi Calm Calm - N/A   Clear
6:35 AM 18.5 °F 11.7 °F 5.4 °F 57% 30.13 in 10.0 mi North 4.6 mph - N/A   Clear
6:55 AM 18.7 °F 13.5 °F 6.1 °F 58% 30.14 in 10.0 mi North 3.5 mph - N/A   Clear
7:15 AM 19.4 °F 11.5 °F 6.4 °F 57% 30.15 in 10.0 mi NE 5.8 mph - N/A   Clear
7:35 AM 23.0 °F 17.0 °F 7.7 °F 52% 30.15 in 10.0 mi NNE 4.6 mph - N/A   Clear
7:55 AM 28.8 °F 25.0 °F 9.5 °F 45% 30.15 in 10.0 mi North 3.5 mph - N/A   Clear
8:15 AM 33.4 °F 28.1 °F 10.9 °F 39% 30.17 in 10.0 mi NNW 5.8 mph - N/A   Clear
8:35 AM 37.4 °F 32.8 °F 12.0 °F 35% 30.17 in 10.0 mi North 5.8 mph - N/A   Clear
8:55 AM 42.4 °F 39.6 °F 13.1 °F 30% 30.17 in 10.0 mi North 4.6 mph - N/A   Clear
9:15 AM 46.6 °F - 14.0 °F 27% 30.18 in 10.0 mi NNE 4.6 mph - N/A   Clear
9:35 AM 48.4 °F - 14.5 °F 26% 30.18 in 10.0 mi NNE 3.5 mph - N/A   Clear
9:55 AM 51.1 °F - 14.9 °F 24% 30.19 in 10.0 mi NE 3.5 mph - N/A   Clear
10:15 AM 53.6 °F - 15.6 °F 22% 30.19 in 10.0 mi ENE 3.5 mph - N/A   Clear
10:35 AM 57.9 °F - 16.3 °F 20% 30.18 in 10.0 mi NNW 10.4 mph - N/A   Clear
10:55 AM 59.7 °F - 15.8 °F 18% 30.18 in 10.0 mi NNW 11.5 mph 16.1 mph N/A   Clear
11:15 AM 61.5 °F - 15.1 °F 16% 30.18 in 10.0 mi NW 13.8 mph 18.4 mph N/A   Clear
11:35 AM 59.9 °F - 14.2 °F 17% 30.18 in 10.0 mi WNW 11.5 mph - N/A   Clear
11:55 AM 60.1 °F - 14.0 °F 16% 30.17 in 10.0 mi NW 10.4 mph - N/A   Clear
12:15 PM 60.6 °F - 13.8 °F 16% 30.17 in 10.0 mi North 10.4 mph - N/A   Clear
12:35 PM 59.2 °F - 13.6 °F 17% 30.17 in 10.0 mi North 12.7 mph 18.4 mph N/A   Clear
12:55 PM 58.6 °F - 13.1 °F 17% 30.17 in 10.0 mi North 11.5 mph 18.4 mph N/A   Clear
1:15 PM 57.9 °F - 13.5 °F 17% 30.18 in 10.0 mi NNE 11.5 mph - N/A   Clear
1:35 PM 57.6 °F - 13.6 °F 18% 30.18 in 10.0 mi North 9.2 mph - N/A   Clear
1:55 PM 58.1 °F - 12.9 °F 17% 30.18 in 10.0 mi NNW 6.9 mph - N/A   Clear
2:15 PM 58.5 °F - 12.4 °F 16% 30.19 in 10.0 mi NNW 5.8 mph - N/A   Clear
2:35 PM 58.5 °F - 11.3 °F 16% 30.19 in 10.0 mi NNW 8.1 mph - N/A   Clear
2:55 PM 58.1 °F - 11.7 °F 16% 30.19 in 10.0 mi North 5.8 mph - N/A   Clear
3:15 PM 57.4 °F - 11.1 °F 16% 30.19 in 10.0 mi NE 3.5 mph - N/A   Clear
3:55 PM 55.0 °F - 10.2 °F 17% 30.20 in 10.0 mi Calm Calm - N/A   Clear
4:15 PM 52.3 °F - 10.2 °F 19% 30.21 in 10.0 mi East 11.5 mph - N/A   Clear
4:35 PM 48.7 °F - 12.4 °F 23% 30.22 in 10.0 mi East 6.9 mph - N/A   Clear
4:55 PM 46.6 °F - 14.0 °F 27% 30.23 in 10.0 mi ESE 8.1 mph - N/A   Clear
5:15 PM 44.1 °F 38.6 °F 14.7 °F 31% 30.23 in 10.0 mi East 10.4 mph - N/A   Clear
5:35 PM 42.1 °F 40.2 °F 14.9 °F 33% 30.25 in 10.0 mi South 3.5 mph - N/A   Clear
5:55 PM 39.0 °F 35.7 °F 14.2 °F 36% 30.27 in 10.0 mi SW 4.6 mph - N/A   Clear
6:15 PM 37.9 °F 35.5 °F 15.1 °F 39% 30.29 in 10.0 mi South 3.5 mph - N/A   Clear
6:35 PM 39.7 °F 37.6 °F 18.0 °F 42% 30.31 in 10.0 mi SSE 3.5 mph - N/A   Clear
6:55 PM 39.0 °F 35.7 °F 19.9 °F 46% 30.33 in 10.0 mi SSE 4.6 mph - N/A   Clear
7:15 PM 37.4 °F 32.8 °F 18.5 °F 46% 30.33 in 10.0 mi SSE 5.8 mph - N/A   Clear
7:35 PM 32.7 °F 26.4 °F 17.6 °F 54% 30.35 in 10.0 mi SSE 6.9 mph - N/A   Clear
7:55 PM 33.3 °F 25.1 °F 20.5 °F 59% 30.35 in 10.0 mi SSE 10.4 mph - N/A   Clear
8:55 PM 30.0 °F 22.4 °F 19.8 °F 66% 30.38 in 10.0 mi SSE 8.1 mph - N/A   Clear
9:15 PM 28.2 °F 21.0 °F 19.0 °F 68% 30.38 in 10.0 mi SSE 6.9 mph - N/A   Clear
9:35 PM 28.6 °F 20.7 °F 19.4 °F 69% 30.39 in 10.0 mi SSE 8.1 mph - N/A   Clear
9:55 PM 26.1 °F 18.4 °F 18.5 °F 73% 30.40 in 10.0 mi South 6.9 mph - N/A   Clear
10:15 PM 25.3 °F 18.5 °F 17.8 °F 73% 30.40 in 10.0 mi South 5.8 mph - N/A   Clear
10:35 PM 24.3 °F 17.3 °F 17.4 °F 75% 30.40 in 10.0 mi South 5.8 mph - N/A   Clear
10:55 PM 23.0 °F 15.8 °F 16.0 °F 74% 30.40 in 10.0 mi South 5.8 mph - N/A   Clear
11:15 PM 23.0 °F 17.0 °F 16.5 °F 76% 30.41 in 10.0 mi South 4.6 mph - N/A   Clear
11:35 PM 21.9 °F 14.5 °F 15.8 °F 77% 30.41 in 10.0 mi South 5.8 mph - N/A   Clear
11:55 PM 20.3 °F 13.8 °F 14.5 °F 78% 30.40 in 10.0 mi SSW 4.6 mph - N/A   Clear